| time (UTC) | temp C | wind direction | speed KPH | gust KPH | rain 1hr cm | rain 24hr cm | rain mn cm | humidity % | barometer mb |
| 20260502193052 | 13 | 231 | 3.2 | 9.7 | 0.00 | 0.08 | 0.08 | 86 | 1015.2 |
| 20260502191555 | 12 | 0 | 3.2 | 11.3 | 0.00 | 0.08 | 0.08 | 88 | 1015.2 |
| 20260502190057 | 12 | 0 | 0.0 | 1.6 | 0.00 | 0.08 | 0.08 | 90 | 1015.1 |
| 20260502184600 | 11 | 0 | 0.0 | 0.0 | 0.00 | 0.08 | 0.08 | 91 | 1014.9 |
| 20260502183108 | 11 | 0 | 0.0 | 0.0 | 0.00 | 0.08 | 0.08 | 92 | 1014.9 |
| 20260502181554 | 11 | 0 | 0.0 | 3.2 | 0.00 | 0.08 | 0.08 | 91 | 1015.3 |
| 20260502163057 | 8 | 0 | 0.0 | 0.0 | 0.00 | 0.08 | 0.08 | 96 | 1015.8 |
| 20260502161554 | 9 | 0 | 0.0 | 0.0 | 0.00 | 0.08 | 0.08 | 96 | 1015.8 |
| 20260502151602 | 8 | 0 | 0.0 | 1.6 | 0.00 | 0.08 | 0.08 | 97 | 1015.8 |
| 20260502123056 | 8 | 0 | 0.0 | 6.4 | 0.00 | 0.08 | 0.08 | 97 | 1015.9 |
| 20260502121551 | 8 | 260 | 0.0 | 9.7 | 0.00 | 0.08 | 0.08 | 97 | 1015.8 |
| 20260502114605 | 8 | 140 | 0.0 | 9.7 | 0.00 | 0.08 | 0.08 | 97 | 1015.5 |
| 20260502113057 | 8 | 0 | 0.0 | 0.0 | 0.00 | 0.08 | 0.08 | 97 | 1015.5 |
| 20260502111556 | 8 | 0 | 0.0 | 0.0 | 0.00 | 0.08 | 0.08 | 97 | 1015.3 |
| 20260502110053 | 8 | 0 | 0.0 | 6.4 | 0.00 | 0.08 | 0.08 | 97 | 1015.6 |
| 20260502104556 | 8 | 243 | 0.0 | 3.2 | 0.00 | 0.08 | 0.08 | 96 | 1015.5 |
| 20260502103053 | 8 | 0 | 0.0 | 1.6 | 0.00 | 0.08 | 0.08 | 96 | 1015.2 |
| 20260502101618 | 8 | 0 | 0.0 | 0.0 | 0.03 | 0.08 | 0.08 | 96 | 1015.5 |
| 20260502090107 | 9 | 0 | 0.0 | 3.2 | 0.05 | 0.05 | 0.05 | 94 | 1016.6 |
| 20260502070114 | 10 | 0 | 0.0 | 1.6 | 0.00 | 0.00 | 0.00 | 90 | 1016.8 |
| 20260502064556 | 10 | 168 | 0.0 | 6.4 | 0.00 | 0.00 | 0.00 | 91 | 1016.7 |
| 20260502063059 | 11 | 0 | 0.0 | 1.6 | 0.00 | 0.00 | 0.00 | 89 | 1016.5 |
| 20260502061602 | 11 | 190 | 0.0 | 6.4 | 0.00 | 0.00 | 0.00 | 88 | 1016.6 |
| 20260502060053 | 11 | 0 | 0.0 | 4.8 | 0.00 | 0.00 | 0.00 | 86 | 1016.6 |
| 20260502054556 | 12 | 0 | 1.6 | 6.4 | 0.00 | 0.00 | 0.00 | 84 | 1016.4 |
| 20260502053056 | 12 | 227 | 0.0 | 3.2 | 0.00 | 0.00 | 0.00 | 83 | 1016.5 |
| 20260502051620 | 13 | 0 | 0.0 | 3.2 | 0.00 | 0.00 | 0.00 | 83 | 1016.5 |
| 20260502050056 | 13 | 0 | 0.0 | 3.2 | 0.00 | 0.00 | 0.00 | 82 | 1016.4 |
| 20260502044555 | 13 | 0 | 0.0 | 9.7 | 0.00 | 0.00 | 0.00 | 79 | 1016.0 |
| 20260502043057 | 14 | 271 | 1.6 | 6.4 | 0.00 | 0.00 | 0.00 | 77 | 1015.9 |
| 20260502041554 | 15 | 0 | 0.0 | 4.8 | 0.00 | 0.00 | 0.00 | 76 | 1015.9 |
| 20260502040059 | 15 | 0 | 0.0 | 6.4 | 0.00 | 0.00 | 0.00 | 74 | 1015.9 |
| 20260502034554 | 16 | 0 | 0.0 | 3.2 | 0.00 | 0.00 | 0.00 | 73 | 1015.6 |
| 20260502033049 | 16 | 309 | 0.0 | 4.8 | 0.00 | 0.00 | 0.00 | 70 | 1015.3 |
| 20260502031553 | 17 | 0 | 0.0 | 4.8 | 0.00 | 0.00 | 0.00 | 67 | 1015.1 |
| 20260502030104 | 17 | 0 | 0.0 | 4.8 | 0.00 | 0.00 | 0.00 | 62 | 1015.0 |
| 20260502024553 | 18 | 0 | 0.0 | 8.0 | 0.00 | 0.00 | 0.00 | 61 | 1014.9 |
| 20260502023120 | 18 | 0 | 0.0 | 4.8 | 0.00 | 0.00 | 0.00 | 61 | 1014.8 |
| 20260502021553 | 18 | 325 | 0.0 | 8.0 | 0.00 | 0.00 | 0.00 | 64 | 1014.7 |
| 20260502020105 | 19 | 257 | 1.6 | 6.4 | 0.00 | 0.00 | 0.00 | 63 | 1014.7 |
| 20260502014553 | 19 | 0 | 0.0 | 3.2 | 0.00 | 0.00 | 0.00 | 61 | 1014.6 |
| 20260502013102 | 19 | 0 | 0.0 | 4.8 | 0.00 | 0.00 | 0.00 | 59 | 1014.7 |
| 20260502011603 | 20 | 333 | 0.0 | 11.3 | 0.00 | 0.00 | 0.00 | 61 | 1014.5 |
| 20260502010053 | 20 | 266 | 3.2 | 16.1 | 0.00 | 0.00 | 0.00 | 59 | 1014.7 |
| 20260502004614 | 21 | 0 | 1.6 | 8.0 | 0.00 | 0.00 | 0.00 | 57 | 1014.6 |
| 20260502003058 | 20 | 0 | 1.6 | 12.9 | 0.00 | 0.00 | 0.00 | 58 | 1014.5 |
| 20260502001608 | 20 | 352 | 1.6 | 8.0 | 0.00 | 0.00 | 0.00 | 58 | 1014.6 |
| 20260502000105 | 20 | 0 | 1.6 | 4.8 | 0.00 | 0.00 | 0.00 | 58 | 1014.4 |
| 20260501234607 | 20 | 0 | 1.6 | 6.4 | 0.00 | 0.00 | 0.00 | 60 | 1014.4 |
| 20260501233103 | 20 | 248 | 0.0 | 6.4 | 0.00 | 0.00 | 0.00 | 61 | 1014.7 |
| 20260501231557 | 20 | 0 | 0.0 | 8.0 | 0.00 | 0.00 | 0.00 | 62 | 1014.6 |
| 20260501230055 | 20 | 0 | 1.6 | 6.4 | 0.00 | 0.00 | 0.00 | 61 | 1014.8 |
| 20260501224557 | 20 | 352 | 1.6 | 8.0 | 0.00 | 0.00 | 0.00 | 59 | 1015.0 |
| 20260501223052 | 20 | 19 | 0.0 | 6.4 | 0.00 | 0.00 | 0.00 | 61 | 1015.1 |
| 20260501221550 | 19 | 352 | 1.6 | 9.7 | 0.00 | 0.00 | 0.00 | 60 | 1015.3 |
| 20260501220137 | 19 | 297 | 0.0 | 9.7 | 0.00 | 0.00 | 0.00 | 65 | 1015.7 |
| 20260501214555 | 19 | 352 | 1.6 | 4.8 | 0.00 | 0.00 | 0.00 | 62 | 1015.8 |
| 20260501213100 | 18 | 0 | 0.0 | 6.4 | 0.00 | 0.00 | 0.00 | 64 | 1016.0 |
| 20260501211556 | 18 | 333 | 1.6 | 6.4 | 0.00 | 0.00 | 0.00 | 69 | 1016.1 |
| 20260501210110 | 18 | 262 | 1.6 | 8.0 | 0.00 | 0.00 | 0.00 | 68 | 1016.1 |
| 20260501204555 | 18 | 337 | 0.0 | 6.4 | 0.00 | 0.00 | 0.00 | 68 | 1016.1 |
| 20260501203053 | 18 | 348 | 1.6 | 6.4 | 0.00 | 0.00 | 0.00 | 67 | 1016.2 |
| 20260501201557 | 17 | 360 | 1.6 | 9.7 | 0.00 | 0.00 | 0.00 | 68 | 1016.2 |
| 20260501200054 | 17 | 5 | 0.0 | 6.4 | 0.00 | 0.00 | 0.00 | 72 | 1016.3 |
| 20260501194554 | 17 | 352 | 1.6 | 6.4 | 0.00 | 0.00 | 0.00 | 72 | 1016.6 |